| time (UTC) | temp F | wind direction | speed knots | gust knots | rain 1hr in | rain 24hr in | rain mn in | humidity % | barometer mb |
| 20260906001506 | 95 | 213 | 1.7 | 7.0 | 0.00 | 0.00 | 0.00 | 32 | 1011.1 |
| 20260906000004 | 95 | 231 | 1.7 | 5.2 | 0.00 | 0.00 | 0.00 | 32 | 1011.0 |
| 20260905234503 | 96 | 190 | 2.6 | 8.7 | 0.00 | 0.00 | 0.00 | 30 | 1011.0 |
| 20260905233002 | 97 | 211 | 3.5 | 7.8 | 0.00 | 0.00 | 0.00 | 30 | 1011.1 |
| 20260905231502 | 97 | 193 | 1.7 | 7.8 | 0.00 | 0.00 | 0.00 | 30 | 1011.0 |
| 20260905230113 | 96 | 247 | 1.7 | 7.0 | 0.00 | 0.00 | 0.00 | 31 | 1011.0 |
| 20260905224556 | 97 | 204 | 1.7 | 8.7 | 0.00 | 0.00 | 0.00 | 30 | 1011.1 |
| 20260905223054 | 97 | 198 | 2.6 | 10.4 | 0.00 | 0.00 | 0.00 | 29 | 1011.1 |
| 20260905221554 | 97 | 174 | 3.5 | 8.7 | 0.00 | 0.00 | 0.00 | 29 | 1011.3 |
| 20260905220047 | 97 | 190 | 2.6 | 11.3 | 0.00 | 0.00 | 0.00 | 28 | 1011.3 |
| 20260905214541 | 97 | 156 | 4.3 | 7.8 | 0.00 | 0.00 | 0.00 | 26 | 1011.5 |
| 20260905213050 | 97 | 185 | 1.7 | 7.0 | 0.00 | 0.00 | 0.00 | 25 | 1011.6 |
| 20260905211543 | 96 | 226 | 3.5 | 9.6 | 0.00 | 0.00 | 0.00 | 26 | 1011.7 |
| 20260905210031 | 96 | 166 | 3.5 | 7.8 | 0.00 | 0.00 | 0.00 | 25 | 1012.0 |
| 20260905204532 | 96 | 285 | 0.9 | 7.0 | 0.00 | 0.00 | 0.00 | 23 | 1012.2 |
| 20260905203039 | 96 | 188 | 2.6 | 6.1 | 0.00 | 0.00 | 0.00 | 20 | 1012.3 |
| 20260905201548 | 96 | 139 | 2.6 | 7.0 | 0.00 | 0.00 | 0.00 | 21 | 1012.5 |
| 20260905200025 | 96 | 209 | 2.6 | 6.1 | 0.00 | 0.00 | 0.00 | 17 | 1012.6 |
| 20260905194524 | 94 | 258 | 0.9 | 6.1 | 0.00 | 0.00 | 0.00 | 16 | 1012.8 |
| 20260905193024 | 96 | 121 | 4.3 | 7.0 | 0.00 | 0.00 | 0.00 | 15 | 1012.9 |
| 20260905191526 | 94 | 206 | 2.6 | 6.1 | 0.00 | 0.00 | 0.00 | 18 | 1013.2 |
| 20260905190018 | 92 | 183 | 1.7 | 7.8 | 0.00 | 0.00 | 0.00 | 20 | 1013.4 |
| 20260905184516 | 92 | 256 | 2.6 | 5.2 | 0.00 | 0.00 | 0.00 | 19 | 1013.6 |
| 20260905183012 | 90 | 125 | 2.6 | 4.3 | 0.00 | 0.00 | 0.00 | 21 | 1013.6 |
| 20260905181510 | 89 | 153 | 1.7 | 4.3 | 0.00 | 0.00 | 0.00 | 22 | 1013.7 |
| 20260905180005 | 87 | 186 | 0.9 | 4.3 | 0.00 | 0.00 | 0.00 | 26 | 1013.7 |
| 20260905174504 | 86 | 139 | 0.9 | 5.2 | 0.00 | 0.00 | 0.00 | 27 | 1013.9 |
| 20260905173003 | 85 | 212 | 0.0 | 4.3 | 0.00 | 0.00 | 0.00 | 28 | 1013.6 |
| 20260905171603 | 85 | 288 | 1.7 | 5.2 | 0.00 | 0.00 | 0.00 | 27 | 1013.5 |
| 20260905170106 | 84 | 215 | 1.7 | 4.3 | 0.00 | 0.00 | 0.00 | 28 | 1013.6 |
| 20260905164603 | 82 | 213 | 0.0 | 1.7 | 0.00 | 0.00 | 0.00 | 28 | 1013.5 |
| 20260905163051 | 80 | 153 | 0.0 | 1.7 | 0.00 | 0.00 | 0.00 | 28 | 1013.5 |
| 20260905161548 | 78 | 149 | 0.0 | 1.7 | 0.00 | 0.00 | 0.00 | 34 | 1013.5 |
| 20260905160044 | 76 | 259 | 0.0 | 1.7 | 0.00 | 0.00 | 0.00 | 39 | 1013.5 |
| 20260905154541 | 73 | 180 | 0.0 | 3.5 | 0.00 | 0.00 | 0.00 | 42 | 1013.5 |
| 20260905153039 | 73 | 246 | 1.7 | 3.5 | 0.00 | 0.00 | 0.00 | 43 | 1013.4 |
| 20260905151537 | 70 | 29 | 0.0 | 0.0 | 0.00 | 0.00 | 0.00 | 45 | 1013.4 |
| 20260905150029 | 65 | 29 | 0.0 | 0.0 | 0.00 | 0.00 | 0.00 | 60 | 1013.5 |
| 20260905144532 | 63 | 29 | 0.0 | 0.0 | 0.00 | 0.00 | 0.00 | 63 | 1013.4 |
| 20260905143021 | 61 | 24 | 0.0 | 0.9 | 0.00 | 0.00 | 0.00 | 66 | 1013.4 |
| 20260905141516 | 59 | 24 | 0.0 | 0.0 | 0.00 | 0.00 | 0.00 | 69 | 1013.2 |
| 20260905140012 | 58 | 12 | 0.0 | 1.7 | 0.00 | 0.00 | 0.00 | 70 | 1013.2 |
| 20260905134508 | 58 | 52 | 0.0 | 0.0 | 0.00 | 0.00 | 0.00 | 71 | 1013.0 |
| 20260905133007 | 58 | 52 | 0.0 | 0.0 | 0.00 | 0.00 | 0.00 | 71 | 1012.8 |
| 20260905131505 | 58 | 53 | 0.0 | 0.0 | 0.00 | 0.00 | 0.00 | 71 | 1012.8 |
| 20260905130004 | 58 | 53 | 0.0 | 0.0 | 0.00 | 0.00 | 0.00 | 72 | 1012.7 |
| 20260905124512 | 58 | 52 | 0.0 | 0.0 | 0.00 | 0.00 | 0.00 | 72 | 1012.4 |
| 20260905123002 | 58 | 52 | 0.0 | 0.0 | 0.00 | 0.00 | 0.00 | 72 | 1012.5 |
| 20260905121601 | 58 | 52 | 0.0 | 0.0 | 0.00 | 0.00 | 0.00 | 74 | 1012.6 |
| 20260905120100 | 58 | 53 | 0.0 | 0.0 | 0.00 | 0.00 | 0.00 | 74 | 1012.5 |
| 20260905114558 | 58 | 52 | 0.0 | 0.0 | 0.00 | 0.00 | 0.00 | 74 | 1012.6 |
| 20260905113102 | 59 | 61 | 0.0 | 0.0 | 0.00 | 0.00 | 0.00 | 76 | 1012.5 |
| 20260905111604 | 59 | 61 | 0.0 | 0.0 | 0.00 | 0.00 | 0.00 | 76 | 1012.6 |
| 20260905110052 | 59 | 61 | 0.0 | 0.0 | 0.00 | 0.00 | 0.00 | 77 | 1012.7 |
| 20260905104607 | 60 | 61 | 0.0 | 0.0 | 0.00 | 0.00 | 0.00 | 78 | 1012.8 |
| 20260905103051 | 60 | 61 | 0.0 | 0.0 | 0.00 | 0.00 | 0.00 | 78 | 1012.7 |
| 20260905101550 | 60 | 61 | 0.0 | 0.0 | 0.00 | 0.00 | 0.00 | 78 | 1012.8 |
| 20260905100047 | 61 | 61 | 0.0 | 0.0 | 0.00 | 0.00 | 0.00 | 78 | 1012.6 |
| 20260905094545 | 61 | 61 | 0.0 | 0.0 | 0.00 | 0.00 | 0.00 | 79 | 1012.7 |
| 20260905093043 | 62 | 49 | 0.0 | 0.0 | 0.00 | 0.00 | 0.00 | 78 | 1012.8 |
| 20260905091542 | 62 | 49 | 0.0 | 0.0 | 0.00 | 0.00 | 0.00 | 79 | 1012.8 |
| 20260905084538 | 63 | 24 | 0.0 | 0.0 | 0.00 | 0.00 | 0.00 | 78 | 1013.1 |
| 20260905083036 | 63 | 24 | 0.0 | 0.0 | 0.00 | 0.00 | 0.00 | 78 | 1013.1 |
| 20260905081533 | 64 | 1 | 0.0 | 0.9 | 0.00 | 0.00 | 0.00 | 78 | 1013.4 |
| 20260905080031 | 64 | 359 | 0.0 | 1.7 | 0.00 | 0.00 | 0.00 | 78 | 1013.5 |
| 20260905074529 | 64 | 1 | 0.0 | 1.7 | 0.00 | 0.00 | 0.00 | 77 | 1013.7 |
| 20260905073031 | 65 | 139 | 0.0 | 0.0 | 0.00 | 0.00 | 0.00 | 76 | 1013.9 |
| 20260905071525 | 65 | 139 | 0.0 | 0.0 | 0.00 | 0.00 | 0.00 | 75 | 1013.9 |
| 20260905070024 | 65 | 139 | 0.0 | 0.0 | 0.00 | 0.00 | 0.00 | 75 | 1013.8 |
| 20260905064524 | 66 | 139 | 0.0 | 0.0 | 0.00 | 0.00 | 0.00 | 74 | 1013.6 |
| 20260905063022 | 66 | 139 | 0.0 | 0.0 | 0.00 | 0.00 | 0.00 | 74 | 1013.6 |
| 20260905061531 | 67 | 139 | 0.0 | 0.0 | 0.00 | 0.00 | 0.00 | 73 | 1013.5 |
| 20260905060021 | 67 | 139 | 0.0 | 0.0 | 0.00 | 0.00 | 0.00 | 73 | 1013.4 |
| 20260905054526 | 67 | 139 | 0.0 | 0.0 | 0.00 | 0.00 | 0.00 | 72 | 1013.4 |
| 20260905053022 | 68 | 139 | 0.0 | 0.0 | 0.00 | 0.00 | 0.00 | 71 | 1013.2 |
| 20260905051521 | 68 | 139 | 0.0 | 0.0 | 0.00 | 0.00 | 0.00 | 70 | 1013.3 |
| 20260905050018 | 69 | 139 | 0.0 | 0.0 | 0.00 | 0.00 | 0.00 | 69 | 1013.4 |
| 20260905044524 | 70 | 139 | 0.0 | 0.9 | 0.00 | 0.00 | 0.00 | 69 | 1013.2 |
| 20260905043016 | 70 | 139 | 0.0 | 0.0 | 0.00 | 0.00 | 0.00 | 68 | 1013.0 |
| 20260905041516 | 71 | 139 | 0.0 | 1.7 | 0.00 | 0.00 | 0.00 | 68 | 1012.9 |
| 20260905040015 | 71 | 163 | 0.9 | 4.3 | 0.00 | 0.00 | 0.00 | 68 | 1013.0 |
| 20260905034515 | 72 | 163 | 0.0 | 5.2 | 0.00 | 0.00 | 0.00 | 67 | 1012.8 |
| 20260905033017 | 72 | 216 | 0.0 | 0.9 | 0.00 | 0.00 | 0.00 | 64 | 1012.7 |
| 20260905031514 | 73 | 178 | 0.9 | 2.6 | 0.00 | 0.00 | 0.00 | 62 | 1012.5 |
| 20260905030013 | 74 | 242 | 0.0 | 4.3 | 0.00 | 0.00 | 0.00 | 60 | 1012.3 |
| 20260905024512 | 75 | 252 | 2.6 | 5.2 | 0.00 | 0.00 | 0.00 | 57 | 1012.0 |
| 20260905023012 | 76 | 236 | 0.0 | 3.5 | 0.00 | 0.00 | 0.00 | 53 | 1012.0 |
| 20260905021520 | 78 | 189 | 0.0 | 4.3 | 0.00 | 0.00 | 0.00 | 50 | 1011.9 |
| 20260905020011 | 78 | 179 | 0.9 | 3.5 | 0.00 | 0.00 | 0.00 | 44 | 1011.9 |
| 20260905014509 | 80 | 253 | 1.7 | 5.2 | 0.00 | 0.00 | 0.00 | 40 | 1011.7 |
| 20260905013009 | 81 | 178 | 2.6 | 5.2 | 0.00 | 0.00 | 0.00 | 38 | 1011.7 |
| 20260905011508 | 82 | 166 | 1.7 | 6.1 | 0.00 | 0.00 | 0.00 | 38 | 1011.7 |
| 20260905010006 | 82 | 127 | 0.0 | 6.1 | 0.00 | 0.00 | 0.00 | 36 | 1011.6 |
| 20260905004504 | 83 | 155 | 0.9 | 7.0 | 0.00 | 0.00 | 0.00 | 36 | 1011.7 |
| 20260905003003 | 83 | 161 | 3.5 | 7.0 | 0.00 | 0.00 | 0.00 | 38 | 1011.8 |